This demonstration page uses our WeatherBlox Daily Observations layout. Learn more.

Left ArrowRight Arrow

38.80484, -77.04692

Hourly Observations for August 21, 2021

Temp ( °F °C ) Dew Point ( °F °C ) Humidity (%) Winds ( mph kmh ) Pressure ( in mb ) Visibility ( mi km ) Precip ( " mm )
12:52 am 00:52 Cloudy 78 25.6 69 20.6 74 74 N N/A 29.91 1013 10 16 N/A
1:52 am 01:52 Mostly Cloudy 76 24.4 69 20.6 79 79 N N/A 29.91 1013 10 16 N/A
2:52 am 02:52 Cloudy 77 25 68 20 74 74 N N/A 29.90 1012 10 16 N/A
3:52 am 03:52 Cloudy 75 23.9 69 20.6 82 82 N 6 9 29.90 1013 10 16 N/A
4:52 am 04:52 Mostly Cloudy 75 23.9 69 20.6 82 82 N 5 7 29.90 1013 10 16 N/A
5:52 am 05:52 Cloudy 75 23.9 69 20.6 82 82 N 3 6 29.91 1013 10 16 N/A
6:52 am 06:52 Mostly Cloudy 76 24.4 69 20.6 79 79 N N/A 29.90 1013 10 16 N/A
7:52 am 07:52 Mostly Cloudy 78 25.6 70 21.1 76 76 NNW 5 7 29.91 1013 10 16 N/A
8:52 am 08:52 Mostly Cloudy 79 26.1 70 21.1 74 74 NNE 3 6 29.91 1013 10 16 N/A
9:52 am 09:52 Mostly Cloudy 83 28.3 70 21.1 65 65 N 5 7 29.91 1013 10 16 N/A
10:52 am 10:52 Mostly Cloudy 84 28.9 69 20.6 61 61 NNE 6 9 29.90 1013 10 16 N/A
11:52 am 11:52 Mostly Cloudy 86 30 69 20.6 57 57 E 6 9 29.89 1012 10 16 N/A
12:52 pm 12:52 Mostly Cloudy 85 29.4 70 21.1 61 61 VRB 5 7 29.89 1012 10 16 N/A
1:14 pm 13:14 Cloudy with Thunderstorms 82 27.8 71 21.7 69 69 WNW 9 15 29.89 1012 10 16 N/A
1:35 pm 13:35 Cloudy with Nearby Thunderstorms 82 27.8 70 21.1 67 67 NW 6 9 29.89 1012 10 16 N/A
1:52 pm 13:52 Cloudy 82 27.8 69 20.6 65 65 NNW 6 9 29.88 1012 10 16 N/A
2:39 pm 14:39 Cloudy with Nearby Thunderstorms 81 27.2 71 21.7 72 72 WSW 7 11 29.89 1012 10 16 0.00 0.00
2:52 pm 14:52 Cloudy 81 27.2 72 22.2 74 74 SW 10 17 29.88 1012 10 16 0.00 0.00
3:08 pm 15:08 Cloudy with Thunderstorms 80 26.7 71 21.7 74 74 undefined N/A 29.89 1012 10 16 N/A
3:29 pm 15:29 Mostly Cloudy with Rain 77 25 67 19.4 71 71 NW 6 9 29.88 1012 7 11 0.08 2.03
3:52 pm 15:52 Mostly Cloudy with Light Rain 81 27.2 70 21.1 69 69 NE 3 6 29.87 1011 10 16 0.10 2.54
4:52 pm 16:52 Partly Cloudy 85 29.4 70 21.1 61 61 N N/A 29.85 1011 10 16 0.00 0.00
5:52 pm 17:52 Partly Cloudy 86 30 69 20.6 57 57 N N/A 29.84 1011 10 16 N/A
6:52 pm 18:52 Mostly Cloudy 86 30 70 21.1 59 59 NNE 5 7 29.84 1011 10 16 N/A
7:52 pm 19:52 Mostly Cloudy 82 27.8 70 21.1 67 67 SE 5 7 29.86 1011 10 16 N/A
8:52 pm 20:52 Mostly Cloudy 80 26.7 68 20 67 67 SSE 3 6 29.87 1012 10 16 N/A
9:52 pm 21:52 Mostly Cloudy 79 26.1 69 20.6 72 72 N N/A 29.89 1012 10 16 N/A
10:52 pm 22:52 Mostly Cloudy 79 26.1 70 21.1 74 74 ESE 3 6 29.90 1012 10 16 N/A
11:52 pm 23:52 Partly Cloudy 78 25.6 71 21.7 79 79 S 3 6 29.90 1012 10 16 N/A

Powered by AerisWeather